N3AVN Weather Reports


Display with metric or nautical units.
time (UTC)temp
F
wind
direction
speed
MPH
gust
MPH
rain 1hr
in
rain 24hr
in
rain mn
in
humidity
%
barometer
mb
20260504140927 64 303 6.0 11.0 0.00 0.00 0.00 39 1009.7
20260504140424 64 8 0.0 11.0 0.00 0.00 0.00 37 1009.8
20260504130349 60 201 2.0 10.0 0.00 0.00 0.00 42 1010.4
20260504120311 56 52 2.0 3.0 0.00 0.00 0.00 51 1010.5
20260504110235 46 111 0.0 2.0 0.00 0.00 0.00 68 1010.9
20260504100159 42 251 7.0 7.0 0.00 0.00 0.00 72 1010.8
20260504090117 41 198 1.0 4.0 0.00 0.00 0.00 75 1010.3
20260504081547 41 206 0.0 3.0 0.00 0.00 0.00 75 1010.2
20260504081043 41 242 4.0 4.0 0.00 0.00 0.00 74 1010.2
20260504080540 41 206 2.0 5.0 0.00 0.00 0.00 75 1010.3
20260504050347 38 102 0.0 0.0 0.00 0.00 0.00 82 1010.2
20260504045844 38 120 0.0 0.0 0.00 0.00 0.00 82 1010.2
20260504045343 37 157 1.0 1.0 0.00 0.00 0.00 82 1010.3
20260504044841 37 194 0.0 1.0 0.00 0.00 0.00 82 1010.5
20260504044338 37 111 0.0 1.0 0.00 0.00 0.00 82 1010.4
20260504043836 37 151 0.0 1.0 0.00 0.00 0.00 82 1010.5
20260504043332 38 120 0.0 2.0 0.00 0.00 0.00 81 1010.3
20260504042830 38 114 0.0 0.0 0.00 0.00 0.00 81 1010.4
20260504042326 38 114 0.0 0.0 0.00 0.00 0.00 79 1010.3
20260504041822 38 111 0.0 0.0 0.00 0.00 0.00 79 1010.2
20260504041318 38 111 0.0 0.0 0.00 0.00 0.00 79 1010.4
20260504040815 39 111 0.0 2.0 0.00 0.00 0.00 78 1010.1
20260504040313 39 120 0.0 1.0 0.00 0.00 0.00 79 1010.2
20260504035808 39 114 0.0 1.0 0.00 0.00 0.00 78 1010.3
20260504035306 39 109 1.0 2.0 0.00 0.00 0.00 78 1010.4
20260504034803 39 106 0.0 1.0 0.00 0.00 0.00 79 1010.2
20260504034300 39 69 0.0 0.0 0.00 0.00 0.00 79 1010.3
20260504033757 39 69 0.0 0.0 0.00 0.00 0.00 78 1010.2
20260504033255 39 180 0.0 0.0 0.00 0.00 0.00 78 1010.2
20260504032751 39 180 0.0 0.0 0.00 0.00 0.00 77 1009.8
20260504032249 39 180 0.0 1.0 0.00 0.00 0.00 78 1010.1
20260504031745 40 127 0.0 0.0 0.00 0.00 0.00 76 1010.1
20260504031243 40 127 0.0 0.0 0.00 0.00 0.00 75 1010.1
20260504030738 40 127 0.0 0.0 0.00 0.00 0.00 75 1010.2
20260504030236 41 127 0.0 1.0 0.00 0.00 0.00 74 1009.8
20260504025732 41 106 0.0 1.0 0.00 0.00 0.00 74 1009.7
20260504025229 41 106 0.0 0.0 0.00 0.00 0.00 74 1010.1
20260504024726 41 203 0.0 0.0 0.00 0.00 0.00 74 1009.8
20260504024223 41 195 0.0 0.0 0.00 0.00 0.00 73 1010.0
20260504023720 41 114 0.0 0.0 0.00 0.00 0.00 71 1009.8
20260504023215 41 114 0.0 0.0 0.00 0.00 0.00 71 1009.9
20260504022712 42 114 0.0 1.0 0.00 0.00 0.00 71 1009.8
20260504022208 42 105 0.0 0.0 0.00 0.00 0.00 71 1009.7
20260504021706 42 105 0.0 1.0 0.00 0.00 0.00 71 1009.8
20260504021202 42 20 0.0 0.0 0.00 0.00 0.00 69 1009.6
20260504020659 43 20 0.0 0.0 0.00 0.00 0.00 67 1009.6
20260504020155 43 20 0.0 0.0 0.00 0.00 0.00 67 1009.4
20260504015652 43 165 0.0 0.0 0.00 0.00 0.00 67 1009.6
20260504015148 43 194 0.0 2.0 0.00 0.00 0.00 66 1009.5
20260504014644 43 187 1.0 1.0 0.00 0.00 0.00 65 1009.6
20260504014142 43 157 0.0 0.0 0.00 0.00 0.00 65 1009.5
20260504013639 43 195 0.0 0.0 0.00 0.00 0.00 64 1009.6
20260504013136 43 114 0.0 0.0 0.00 0.00 0.00 64 1009.4
20260504012633 44 114 0.0 0.0 0.00 0.00 0.00 61 1009.3
20260504012131 44 105 0.0 0.0 0.00 0.00 0.00 60 1009.4
20260504011628 44 105 0.0 0.0 0.00 0.00 0.00 60 1009.3
20260504011124 45 160 0.0 1.0 0.00 0.00 0.00 62 1009.1
20260504010620 45 154 0.0 0.0 0.00 0.00 0.00 61 1009.1
20260504010116 45 154 0.0 0.0 0.00 0.00 0.00 59 1009.1
20260504005613 45 154 0.0 0.0 0.00 0.00 0.00 61 1008.9
20260504005110 45 154 0.0 0.0 0.00 0.00 0.00 60 1008.8
20260504004608 45 154 0.0 0.0 0.00 0.00 0.00 59 1008.8
20260504004105 45 154 0.0 0.0 0.00 0.00 0.00 61 1008.6
20260504003556 45 154 0.0 0.0 0.00 0.00 0.00 59 1008.6
20260504003053 46 154 0.0 0.0 0.00 0.00 0.00 60 1008.6
20260504002549 46 154 0.0 0.0 0.00 0.00 0.00 56 1008.5
20260504002047 46 154 0.0 0.0 0.00 0.00 0.00 55 1008.4
20260504001545 47 154 0.0 0.0 0.00 0.00 0.00 53 1008.2
20260504001040 47 154 0.0 0.0 0.00 0.00 0.00 53 1008.2
20260504000538 47 206 1.0 2.0 0.00 0.00 0.00 50 1008.2
20260504000035 48 254 0.0 2.0 0.00 0.00 0.00 52 1008.0
20260503235534 49 0 0.0 0.0 0.00 0.00 0.00 50 1008.0
20260503235030 50 151 1.0 2.0 0.00 0.00 0.00 47 1008.2
20260503234527 50 353 0.0 0.0 0.00 0.00 0.00 47 1007.9
20260503234026 50 90 0.0 1.0 0.00 0.00 0.00 46 1008.0
20260503233521 51 145 0.0 2.0 0.00 0.00 0.00 46 1007.9
20260503233018 51 270 0.0 0.0 0.00 0.00 0.00 44 1007.7
20260503232515 53 66 0.0 2.0 0.00 0.00 0.00 38 1007.9
20260503232012 53 180 0.0 0.0 0.00 0.00 0.00 40 1007.9
20260503231510 53 286 0.0 2.0 0.00 0.00 0.00 39 1007.9
20260503231007 53 303 1.0 5.0 0.00 0.00 0.00 39 1007.7
20260503230503 53 263 1.0 2.0 0.00 0.00 0.00 38 1007.9
20260503230001 54 254 0.0 2.0 0.00 0.00 0.00 38 1007.7
20260503225457 54 247 3.0 5.0 0.00 0.00 0.00 36 1007.8
20260503224952 54 344 3.0 4.0 0.00 0.00 0.00 37 1007.6
20260503224450 55 319 2.0 6.0 0.00 0.00 0.00 36 1007.8
20260503223948 55 246 0.0 6.0 0.00 0.00 0.00 36 1007.6
20260503223445 55 214 3.0 5.0 0.00 0.00 0.00 36 1008.0
20260503222941 55 11 2.0 8.0 0.00 0.00 0.00 36 1007.6
20260503222440 56 301 2.0 3.0 0.00 0.00 0.00 35 1007.8
20260503221937 56 318 3.0 3.0 0.00 0.00 0.00 34 1007.4
20260503221435 56 315 3.0 5.0 0.00 0.00 0.00 36 1007.8
20260503220932 56 195 1.0 3.0 0.00 0.00 0.00 36 1007.6
20260503220428 56 8 3.0 7.0 0.00 0.00 0.00 34 1007.5
20260503215925 56 0 0.0 4.0 0.00 0.00 0.00 35 1007.6
20260503215422 55 270 0.0 7.0 0.00 0.00 0.00 36 1007.8
20260503214920 56 6 4.0 8.0 0.00 0.00 0.00 36 1007.8
20260503214417 56 358 4.0 6.0 0.00 0.00 0.00 37 1007.6
20260503213915 56 23 0.0 6.0 0.00 0.00 0.00 37 1007.6
20260503213412 56 322 5.0 10.0 0.00 0.00 0.00 36 1007.7
20260503212909 56 327 2.0 6.0 0.00 0.00 0.00 36 1007.6
20260503212406 55 313 3.0 7.0 0.00 0.00 0.00 36 1007.6
20260503211904 55 221 2.0 6.0 0.00 0.00 0.00 36 1007.6
20260503211400 54 322 6.0 15.0 0.00 0.00 0.00 37 1007.7
20260503210855 55 332 2.0 10.0 0.00 0.00 0.00 38 1007.5
20260503210353 56 320 2.0 13.0 0.00 0.00 0.00 36 1007.7
20260503205853 56 321 4.0 5.0 0.00 0.00 0.00 36 1007.6
20260503205350 57 82 5.0 10.0 0.00 0.00 0.00 35 1007.6
20260503204846 57 180 0.0 5.0 0.00 0.00 0.00 37 1007.5
20260503204344 56 35 1.0 5.0 0.00 0.00 0.00 38 1007.8
20260503203841 56 114 3.0 9.0 0.00 0.00 0.00 38 1007.6
20260503203338 57 24 5.0 10.0 0.00 0.00 0.00 36 1007.5
20260503202835 57 276 1.0 6.0 0.00 0.00 0.00 36 1007.7
20260503202333 56 345 2.0 7.0 0.00 0.00 0.00 37 1007.5
20260503201832 55 233 5.0 20.0 0.00 0.00 0.00 35 1007.7
20260503201328 56 299 2.0 18.0 0.00 0.00 0.00 37 1007.8
20260503200826 57 315 4.0 12.0 0.00 0.00 0.00 34 1007.5
20260503200321 57 308 13.0 18.0 0.00 0.00 0.00 36 1007.7
20260503195819 55 314 6.0 10.0 0.00 0.00 0.00 37 1007.6
20260503195315 54 299 6.0 20.0 0.00 0.00 0.00 37 1007.5
20260503194813 57 300 1.0 11.0 0.00 0.00 0.00 35 1007.4
20260503194308 56 318 9.0 9.0 0.00 0.00 0.00 36 1007.4
20260503193805 55 343 8.0 15.0 0.00 0.00 0.00 37 1007.8
20260503193301 55 340 3.0 13.0 0.00 0.00 0.00 37 1007.5
20260503192757 55 335 0.0 9.0 0.00 0.00 0.00 40 1007.6
20260503192252 54 266 2.0 8.0 0.00 0.00 0.00 38 1007.6
20260503191749 55 1 11.0 15.0 0.00 0.00 0.00 37 1007.4
20260503191246 55 109 1.0 14.0 0.00 0.00 0.00 38 1007.5
20260503190743 53 26 7.0 11.0 0.00 0.00 0.00 37 1007.7
20260503190239 54 254 5.0 12.0 0.00 0.00 0.00 36 1007.5
20260503185731 57 318 3.0 6.0 0.00 0.00 0.00 37 1007.6
20260503185226 55 311 4.0 9.0 0.00 0.00 0.00 36 1007.4
20260503184722 56 330 3.0 10.0 0.00 0.00 0.00 37 1007.5
20260503184218 54 240 13.0 17.0 0.00 0.00 0.00 37 1007.6
20260503183715 54 128 7.0 12.0 0.00 0.00 0.00 40 1007.6
20260503183212 54 336 7.0 9.0 0.00 0.00 0.00 37 1007.7
20260503182710 54 346 2.0 12.0 0.00 0.00 0.00 36 1007.5
20260503182209 53 339 3.0 10.0 0.00 0.00 0.00 38 1007.4
20260503181704 53 338 4.0 20.0 0.00 0.00 0.00 37 1007.4
20260503181202 55 22 4.0 6.0 0.00 0.00 0.00 39 1007.6
20260503180658 55 342 4.0 13.0 0.00 0.00 0.00 36 1007.4
20260503180156 53 352 3.0 13.0 0.00 0.00 0.00 38 1007.3
20260503175653 54 10 9.0 10.0 0.00 0.00 0.00 39 1007.4
20260503175151 54 356 2.0 18.0 0.00 0.00 0.00 38 1007.5
20260503174646 55 315 2.0 17.0 0.00 0.00 0.00 37 1007.3
20260503174144 57 320 4.0 6.0 0.00 0.00 0.00 40 1007.5
20260503173639 55 0 2.0 7.0 0.00 0.00 0.00 42 1007.7
20260503173135 53 342 6.0 10.0 0.00 0.00 0.00 38 1007.9
20260503172632 54 95 3.0 5.0 0.00 0.00 0.00 42 1007.8
20260503172129 53 319 4.0 6.0 0.00 0.00 0.00 42 1007.9
20260503171625 52 28 4.0 12.0 0.00 0.00 0.00 41 1007.9
20260503171123 52 32 3.0 14.0 0.00 0.00 0.00 42 1007.7
20260503170620 53 2 3.0 11.0 0.00 0.00 0.00 40 1007.5
20260503170116 55 305 3.0 8.0 0.00 0.00 0.00 39 1007.6
20260503151007 52 176 2.0 5.0 0.00 0.00 0.00 46 1007.2
20260503150503 52 318 5.0 5.0 0.00 0.00 0.00 49 1007.2